User: anonymous   Login
Location: Iesi
(43.5167°N, 13.2333°E)
Time: 06:21:28
(UTC+00:00)
Language:

Cosmos 1850 Rocket - Orbit

View from above orbital plane
View from above orbital plane
View from above satellite
View from above satellite

Ground track
Ground track

The orbit data is extracted from the following two-line orbital elements,

1 18096U 87049B   20294.99762096 -.00000026 +00000-0 +21386-6 0  9992
2 18096 074.0396 141.8186 0021576 010.3783 349.7810 14.36554511747169
Epoch (UTC): 20 October 2020 23:56:34
Eccentricity: 0.0021576
inclination: 74.0396°
perigee height: 754 km
apogee height: 785 km
right ascension of ascending node: 141.8186°
argument of perigee: 10.3783°
revolutions per day: 14.36554511
mean anomaly at epoch: 349.7810°
orbit number at epoch: 74716

The dashed part of the orbit path shows where the satellite is in the earth's shadow,  

DLR